Time,TemperatureF,DewpointF,PressureIn,WindDirection,WindDirectionDegrees,WindSpeedMPH,WindSpeedGustMPH,Humidity,HourlyPrecipIn,Conditions,Clouds,dailyrainin,SoftwareType,DateUTC
2013-08-03 00:02:00,73.0,68.0,30.01,ENE,70,9.0,-999.0,83,-99.99,,,-99.99,,2013-08-03 05:02:00,
2013-08-03 00:12:00,73.0,68.0,30.01,ENE,70,10.0,-999.0,83,-99.99,,,-99.99,,2013-08-03 05:12:00,
2013-08-03 00:22:00,73.0,68.0,30.01,ENE,70,9.0,16.0,83,-99.99,,,-99.99,,2013-08-03 05:22:00,
2013-08-03 00:42:00,73.0,68.0,30.02,ENE,60,12.0,-999.0,83,-99.99,,,-99.99,,2013-08-03 05:42:00,
2013-08-03 01:02:00,73.0,68.0,30.02,ENE,60,14.0,17.0,83,-99.99,,,-99.99,,2013-08-03 06:02:00,
2013-08-03 01:32:00,72.0,66.0,30.02,NE,50,12.0,-999.0,83,-99.99,,,-99.99,,2013-08-03 06:32:00,
2013-08-03 01:42:00,72.0,66.0,30.03,ENE,60,10.0,-999.0,83,-99.99,,,-99.99,,2013-08-03 06:42:00,
2013-08-03 02:02:00,73.0,66.0,30.03,ENE,70,7.0,-999.0,78,-99.99,,,-99.99,,2013-08-03 07:02:00,
2013-08-03 02:12:00,73.0,66.0,30.03,ENE,60,8.0,-999.0,78,-99.99,,,-99.99,,2013-08-03 07:12:00,
2013-08-03 02:22:00,72.0,66.0,30.02,NE,40,9.0,-999.0,83,-99.99,,,-99.99,,2013-08-03 07:22:00,
2013-08-03 02:32:00,72.0,66.0,30.02,NE,50,9.0,-999.0,83,-99.99,,,-99.99,,2013-08-03 07:32:00,
2013-08-03 02:43:00,72.0,66.0,30.01,NE,50,9.0,-999.0,83,-99.99,,,-99.99,,2013-08-03 07:43:00,
2013-08-03 02:52:00,72.0,66.0,30.01,NE,50,9.0,-999.0,83,-99.99,,,-99.99,,2013-08-03 07:52:00,
2013-08-03 03:02:00,70.0,66.0,30.02,NE,40,9.0,-999.0,88,-99.99,,,-99.99,,2013-08-03 08:02:00,
2013-08-03 03:11:00,70.0,66.0,30.02,NE,40,8.0,-999.0,88,-99.99,,,-99.99,,2013-08-03 08:11:00,
2013-08-03 03:22:00,70.0,66.0,30.02,NNE,30,8.0,-999.0,88,-99.99,,,-99.99,,2013-08-03 08:22:00,
2013-08-03 03:32:00,70.0,66.0,30.03,ENE,60,7.0,-999.0,88,-99.99,,,-99.99,,2013-08-03 08:32:00,
2013-08-03 03:43:00,70.0,66.0,30.02,ENE,60,8.0,-999.0,88,-99.99,,,-99.99,,2013-08-03 08:43:00,
2013-08-03 04:02:00,70.0,66.0,30.03,NE,50,8.0,-999.0,88,-99.99,,,-99.99,,2013-08-03 09:02:00,
2013-08-03 04:12:00,70.0,66.0,30.03,ENE,60,8.0,-999.0,88,-99.99,,,-99.99,,2013-08-03 09:12:00,
2013-08-03 04:32:00,70.0,66.0,30.03,NE,50,8.0,-999.0,88,-99.99,,,-99.99,,2013-08-03 09:32:00,
2013-08-03 04:43:00,70.0,66.0,30.03,NNE,30,7.0,-999.0,88,-99.99,,,-99.99,,2013-08-03 09:43:00,
2013-08-03 05:02:00,70.0,66.0,30.03,NE,40,13.0,-999.0,88,-99.99,,,-99.99,,2013-08-03 10:02:00,
2013-08-03 05:12:00,70.0,66.0,30.03,NE,40,13.0,-999.0,88,-99.99,,,-99.99,,2013-08-03 10:12:00,
2013-08-03 05:22:00,70.0,66.0,30.04,NE,40,13.0,16.0,88,-99.99,,,-99.99,,2013-08-03 10:22:00,
2013-08-03 05:32:00,70.0,68.0,30.04,NE,50,12.0,-999.0,94,-99.99,,,-99.99,,2013-08-03 10:32:00,
2013-08-03 05:42:00,70.0,68.0,30.04,NE,40,12.0,-999.0,94,-99.99,,,-99.99,,2013-08-03 10:42:00,
2013-08-03 05:53:00,70.0,68.0,30.05,NE,40,10.0,-999.0,94,-99.99,,,-99.99,,2013-08-03 10:53:00,
2013-08-03 06:02:00,70.0,66.0,30.05,NE,50,12.0,-999.0,88,-99.99,,,-99.99,,2013-08-03 11:02:00,
2013-08-03 06:12:00,70.0,66.0,30.05,NE,50,12.0,-999.0,88,-99.99,,,-99.99,,2013-08-03 11:12:00,
2013-08-03 06:22:00,70.0,66.0,30.06,NE,50,9.0,-999.0,88,-99.99,,,-99.99,,2013-08-03 11:22:00,
2013-08-03 06:32:00,70.0,66.0,30.06,NE,40,12.0,-999.0,88,-99.99,,,-99.99,,2013-08-03 11:32:00,
2013-08-03 06:43:00,70.0,66.0,30.07,NE,40,13.0,-999.0,88,-99.99,,,-99.99,,2013-08-03 11:43:00,
2013-08-03 06:53:00,70.0,66.0,30.06,NE,50,12.0,-999.0,88,-99.99,,,-99.99,,2013-08-03 11:53:00,
2013-08-03 07:02:00,68.0,66.0,30.06,NNE,30,9.0,-999.0,93,-99.99,,,-99.99,,2013-08-03 12:02:00,
2013-08-03 07:12:00,68.0,66.0,30.07,NE,50,10.0,-999.0,93,-99.99,,,-99.99,,2013-08-03 12:12:00,
2013-08-03 07:22:00,68.0,64.0,30.07,NE,40,10.0,-999.0,88,-99.99,,,-99.99,,2013-08-03 12:22:00,
2013-08-03 07:32:00,68.0,64.0,30.07,NE,50,9.0,-999.0,88,-99.99,,,-99.99,,2013-08-03 12:32:00,
2013-08-03 07:43:00,68.0,64.0,30.07,NE,50,12.0,-999.0,88,-99.99,,,-99.99,,2013-08-03 12:43:00,
2013-08-03 07:52:00,68.0,64.0,30.07,NE,40,8.0,-999.0,88,-99.99,,,-99.99,,2013-08-03 12:52:00,
2013-08-03 08:12:00,68.0,64.0,30.07,NE,40,10.0,-999.0,88,-99.99,,,-99.99,,2013-08-03 13:12:00,
2013-08-03 08:32:00,68.0,64.0,30.07,NE,40,13.0,-999.0,88,-99.99,,,-99.99,,2013-08-03 13:32:00,
2013-08-03 08:43:00,70.0,64.0,30.07,NE,40,12.0,16.0,82,-99.99,,,-99.99,,2013-08-03 13:43:00,
2013-08-03 09:02:00,70.0,64.0,30.08,NE,50,9.0,-999.0,82,-99.99,,,-99.99,,2013-08-03 14:02:00,
2013-08-03 09:12:00,70.0,64.0,30.08,ENE,70,8.0,-999.0,82,-99.99,,,-99.99,,2013-08-03 14:12:00,
2013-08-03 09:22:00,70.0,64.0,30.08,NE,50,10.0,-999.0,82,-99.99,,,-99.99,,2013-08-03 14:22:00,
2013-08-03 09:32:00,70.0,64.0,30.09,ENE,60,12.0,-999.0,82,-99.99,,,-99.99,,2013-08-03 14:32:00,
2013-08-03 09:42:00,70.0,64.0,30.09,ENE,60,14.0,-999.0,82,-99.99,,,-99.99,,2013-08-03 14:42:00,
2013-08-03 09:52:00,70.0,64.0,30.09,ENE,60,12.0,-999.0,82,-99.99,,,-99.99,,2013-08-03 14:52:00,
2013-08-03 10:02:00,70.0,64.0,30.08,ENE,60,14.0,-999.0,82,-99.99,,,-99.99,,2013-08-03 15:02:00,
2013-08-03 10:12:00,72.0,64.0,30.08,ENE,70,12.0,-999.0,78,-99.99,,,-99.99,,2013-08-03 15:12:00,
2013-08-03 10:22:00,72.0,64.0,30.09,ENE,60,13.0,-999.0,78,-99.99,,,-99.99,,2013-08-03 15:22:00,
2013-08-03 10:43:00,72.0,64.0,30.09,ENE,60,12.0,-999.0,78,-99.99,,,-99.99,,2013-08-03 15:43:00,
2013-08-03 10:53:00,73.0,64.0,30.09,NE,50,14.0,-999.0,73,-99.99,,,-99.99,,2013-08-03 15:53:00,
2013-08-03 11:02:00,73.0,64.0,30.10,NE,50,13.0,17.0,73,-99.99,,,-99.99,,2013-08-03 16:02:00,
2013-08-03 11:12:00,73.0,64.0,30.10,NE,50,10.0,16.0,73,-99.99,,,-99.99,,2013-08-03 16:12:00,
2013-08-03 11:23:00,73.0,64.0,30.11,NE,40,13.0,-999.0,73,-99.99,,,-99.99,,2013-08-03 16:23:00,
2013-08-03 11:33:00,73.0,64.0,30.11,NE,40,12.0,-999.0,73,-99.99,,,-99.99,,2013-08-03 16:33:00,
2013-08-03 11:43:00,73.0,64.0,30.12,NE,50,15.0,-999.0,73,-99.99,,,-99.99,,2013-08-03 16:43:00,
2013-08-03 11:53:00,73.0,64.0,30.13,NE,50,15.0,-999.0,73,-99.99,,,-99.99,,2013-08-03 16:53:00,
2013-08-03 12:03:00,72.0,64.0,30.13,NE,50,13.0,-999.0,78,-99.99,,,-99.99,,2013-08-03 17:03:00,
2013-08-03 12:12:00,72.0,64.0,30.13,NE,40,16.0,-999.0,78,-99.99,,,-99.99,,2013-08-03 17:12:00,
2013-08-03 12:22:00,72.0,64.0,30.14,NE,40,17.0,21.0,78,-99.99,,,-99.99,,2013-08-03 17:22:00,
2013-08-03 12:32:00,72.0,64.0,30.14,NE,50,17.0,-999.0,78,-99.99,,,-99.99,,2013-08-03 17:32:00,
2013-08-03 12:43:00,72.0,64.0,30.14,NE,40,16.0,23.0,78,-99.99,,,-99.99,,2013-08-03 17:43:00,
2013-08-03 12:52:00,72.0,64.0,30.14,NE,50,17.0,23.0,78,-99.99,,,-99.99,,2013-08-03 17:52:00,
2013-08-03 13:02:00,72.0,64.0,30.14,NE,40,18.0,-999.0,78,-99.99,,,-99.99,,2013-08-03 18:02:00,
2013-08-03 13:12:00,72.0,64.0,30.14,NE,40,18.0,22.0,78,-99.99,,,-99.99,,2013-08-03 18:12:00,
2013-08-03 13:22:00,72.0,64.0,30.15,NE,40,17.0,-999.0,78,-99.99,,,-99.99,,2013-08-03 18:22:00,
2013-08-03 13:32:00,72.0,64.0,30.15,NE,40,17.0,24.0,78,-99.99,,,-99.99,,2013-08-03 18:32:00,
2013-08-03 13:43:00,72.0,64.0,30.15,NE,40,18.0,24.0,78,-99.99,,,-99.99,,2013-08-03 18:43:00,
2013-08-03 13:53:00,72.0,64.0,30.16,NE,40,17.0,25.0,78,-99.99,,,-99.99,,2013-08-03 18:53:00,
2013-08-03 14:02:00,72.0,63.0,30.16,NE,50,16.0,24.0,73,-99.99,,,-99.99,,2013-08-03 19:02:00,
2013-08-03 14:12:00,72.0,63.0,30.16,NE,40,15.0,25.0,73,-99.99,,,-99.99,,2013-08-03 19:12:00,
2013-08-03 14:22:00,72.0,64.0,30.16,NE,40,18.0,25.0,78,-99.99,,,-99.99,,2013-08-03 19:22:00,
2013-08-03 14:32:00,72.0,64.0,30.16,NNE,30,16.0,21.0,78,-99.99,,,-99.99,,2013-08-03 19:32:00,
2013-08-03 14:43:00,72.0,63.0,30.17,NE,40,20.0,23.0,73,-99.99,,,-99.99,,2013-08-03 19:43:00,
2013-08-03 14:52:00,72.0,63.0,30.17,NNE,20,14.0,22.0,73,-99.99,,,-99.99,,2013-08-03 19:52:00,
2013-08-03 15:02:00,72.0,63.0,30.17,NNE,30,17.0,22.0,73,-99.99,,,-99.99,,2013-08-03 20:02:00,
2013-08-03 15:12:00,72.0,63.0,30.17,NE,40,21.0,25.0,73,-99.99,,,-99.99,,2013-08-03 20:12:00,
2013-08-03 15:22:00,72.0,63.0,30.17,NNE,30,18.0,27.0,73,-99.99,,,-99.99,,2013-08-03 20:22:00,
2013-08-03 15:32:00,72.0,63.0,30.17,NE,40,20.0,25.0,73,-99.99,,,-99.99,,2013-08-03 20:32:00,
2013-08-03 15:42:00,73.0,63.0,30.17,NE,50,18.0,24.0,68,-99.99,,,-99.99,,2013-08-03 20:42:00,
2013-08-03 15:52:00,73.0,63.0,30.16,NE,50,17.0,25.0,68,-99.99,,,-99.99,,2013-08-03 20:52:00,
2013-08-03 16:02:00,73.0,63.0,30.15,ENE,60,21.0,27.0,68,-99.99,,,-99.99,,2013-08-03 21:02:00,
2013-08-03 16:12:00,73.0,63.0,30.14,NE,50,20.0,24.0,68,-99.99,,,-99.99,,2013-08-03 21:12:00,
2013-08-03 16:22:00,73.0,63.0,30.14,ENE,60,18.0,23.0,68,-99.99,,,-99.99,,2013-08-03 21:22:00,
2013-08-03 16:32:00,75.0,63.0,30.13,ENE,70,15.0,27.0,64,-99.99,,,-99.99,,2013-08-03 21:32:00,
2013-08-03 16:42:00,77.0,64.0,30.13,ENE,60,18.0,23.0,65,-99.99,,,-99.99,,2013-08-03 21:42:00,
2013-08-03 17:12:00,79.0,64.0,30.12,East,80,20.0,25.0,61,-99.99,,,-99.99,,2013-08-03 22:12:00,
2013-08-03 17:22:00,77.0,64.0,30.12,East,80,16.0,23.0,65,-99.99,,,-99.99,,2013-08-03 22:22:00,
2013-08-03 17:32:00,77.0,64.0,30.12,ENE,70,15.0,22.0,65,-99.99,,,-99.99,,2013-08-03 22:32:00,
2013-08-03 17:43:00,77.0,64.0,30.12,East,80,15.0,18.0,65,-99.99,,,-99.99,,2013-08-03 22:43:00,
2013-08-03 17:52:00,77.0,64.0,30.11,East,90,14.0,21.0,65,-99.99,,,-99.99,,2013-08-03 22:52:00,
2013-08-03 18:02:00,75.0,64.0,30.12,East,90,14.0,24.0,69,-99.99,,,-99.99,,2013-08-03 23:02:00,
2013-08-03 18:12:00,75.0,64.0,30.12,East,90,14.0,22.0,69,-99.99,,,-99.99,,2013-08-03 23:12:00,
2013-08-03 18:22:00,75.0,64.0,30.11,East,90,16.0,20.0,69,-99.99,,,-99.99,,2013-08-03 23:22:00,
2013-08-03 18:32:00,75.0,64.0,30.12,East,80,14.0,18.0,69,-99.99,,,-99.99,,2013-08-03 23:32:00,
2013-08-03 18:42:00,75.0,64.0,30.12,East,90,14.0,20.0,69,-99.99,,,-99.99,,2013-08-03 23:42:00,
2013-08-03 18:52:00,75.0,64.0,30.11,East,90,14.0,18.0,69,-99.99,,,-99.99,,2013-08-03 23:52:00,
2013-08-03 19:02:00,75.0,64.0,30.11,East,90,13.0,18.0,69,-99.99,,,-99.99,,2013-08-04 00:02:00,
2013-08-03 19:12:00,75.0,64.0,30.11,East,100,13.0,20.0,69,-99.99,,,-99.99,,2013-08-04 00:12:00,
2013-08-03 19:22:00,75.0,64.0,30.11,East,100,12.0,16.0,69,-99.99,,,-99.99,,2013-08-04 00:22:00,
2013-08-03 19:32:00,75.0,64.0,30.11,East,100,13.0,-999.0,69,-99.99,,,-99.99,,2013-08-04 00:32:00,
2013-08-03 19:42:00,75.0,64.0,30.12,ESE,110,12.0,-999.0,69,-99.99,,,-99.99,,2013-08-04 00:42:00,
2013-08-03 19:52:00,75.0,64.0,30.12,ESE,110,9.0,-999.0,69,-99.99,,,-99.99,,2013-08-04 00:52:00,
2013-08-03 20:02:00,73.0,64.0,30.12,ESE,110,9.0,-999.0,73,-99.99,,,-99.99,,2013-08-04 01:02:00,
2013-08-03 20:12:00,73.0,64.0,30.11,ESE,120,12.0,-999.0,73,-99.99,,,-99.99,,2013-08-04 01:12:00,
2013-08-03 20:22:00,73.0,64.0,30.10,SE,140,9.0,-999.0,73,-99.99,,,-99.99,,2013-08-04 01:22:00,
2013-08-03 20:32:00,73.0,64.0,30.10,SE,130,9.0,16.0,73,-99.99,,,-99.99,,2013-08-04 01:32:00,
2013-08-03 20:42:00,73.0,66.0,30.12,East,80,7.0,-999.0,78,-99.99,,,-99.99,,2013-08-04 01:42:00,
2013-08-03 20:52:00,73.0,66.0,30.13,East,80,7.0,-999.0,78,-99.99,,,-99.99,,2013-08-04 01:52:00,
2013-08-03 21:02:00,73.0,66.0,30.13,ENE,70,6.0,-999.0,78,-99.99,,,-99.99,,2013-08-04 02:02:00,
2013-08-03 21:12:00,73.0,66.0,30.14,ENE,60,6.0,-999.0,78,-99.99,,,-99.99,,2013-08-04 02:12:00,
2013-08-03 21:22:00,73.0,66.0,30.14,NE,50,7.0,-999.0,78,-99.99,,,-99.99,,2013-08-04 02:22:00,
2013-08-03 21:32:00,73.0,66.0,30.15,ENE,70,5.0,-999.0,78,-99.99,,,-99.99,,2013-08-04 02:32:00,
2013-08-03 21:42:00,72.0,66.0,30.15,ENE,60,7.0,-999.0,83,-99.99,,,-99.99,,2013-08-04 02:42:00,
2013-08-03 21:52:00,72.0,66.0,30.15,NE,50,6.0,-999.0,83,-99.99,,,-99.99,,2013-08-04 02:52:00,
2013-08-03 22:02:00,72.0,66.0,30.16,ENE,60,5.0,-999.0,83,-99.99,,,-99.99,,2013-08-04 03:02:00,
2013-08-03 22:11:00,72.0,66.0,30.16,ENE,60,6.0,-999.0,83,-99.99,,,-99.99,,2013-08-04 03:11:00,
2013-08-03 22:22:00,72.0,66.0,30.17,ENE,60,6.0,-999.0,83,-99.99,,,-99.99,,2013-08-04 03:22:00,
2013-08-03 22:32:00,72.0,66.0,30.17,ENE,60,5.0,-999.0,83,-99.99,,,-99.99,,2013-08-04 03:32:00,
2013-08-03 22:42:00,72.0,66.0,30.17,NE,50,6.0,-999.0,83,-99.99,,,-99.99,,2013-08-04 03:42:00,
2013-08-03 22:52:00,72.0,66.0,30.17,ENE,60,7.0,-999.0,83,-99.99,,,-99.99,,2013-08-04 03:52:00,
2013-08-03 23:12:00,72.0,66.0,30.17,NE,50,7.0,-999.0,83,-99.99,,,-99.99,,2013-08-04 04:12:00,
2013-08-03 23:22:00,73.0,66.0,30.16,ENE,60,8.0,-999.0,78,-99.99,,,-99.99,,2013-08-04 04:22:00,
2013-08-03 23:32:00,73.0,66.0,30.17,NE,50,9.0,-999.0,78,-99.99,,,-99.99,,2013-08-04 04:32:00,
2013-08-03 23:42:00,73.0,66.0,30.17,ENE,60,8.0,-999.0,78,-99.99,,,-99.99,,2013-08-04 04:42:00,
2013-08-03 23:52:00,72.0,64.0,30.17,ENE,60,10.0,-999.0,78,-99.99,,,-99.99,,2013-08-04 04:52:00,